BREEZE-M DEB (TANK), 64469

Orbit data source: Space-Track

BREEZE-M DEB (TANK), 64469 is space debris in HEO originally from a launch on Thu, 19 Jun 2025 UTC launched from the Plesetsk Missile And Space Complex (PKMTR). Debris objects in space refer to the collection of defunct objects orbiting the Earth. Examples of debris include non-operational satellites, rocket bodies, and fragments generated from explosions, collisions, or faulty payload assembly.

Loading next visibility...
Identifier
64469, 2025-131D
Orbit
HEO
Country
Flag of CISCIS
Related business
Manufacturer
Khrunichev
Mission
Spacecraft
Bus & Motor
BRIZ TANK, Unknown motor
Mass
~1,000 kg wet, 1,000 kg dry
Launch date (UTC)
2025-06-19 (8 months ago)
Launch vehicle
Unknown
Launch site
Plesetsk Missile And Space Complex (PKMTR)
Object type
Payload
Rocket body
Debris
Shape & HBR
Torus, 2.0 m
Radar Cross Section
8.218 m², Medium (>0.1 m² and < 1m²)

Expand to show TLE details & history
Last TLE update: 4 days ago

TLE from 4 days ago
0 BREEZE-M DEB (TANK)
1 64469U 25131D   26033.20188850  .04450243 -20824-4  10981-2 0  9991
2 64469  60.7965 211.9111 5712357 189.9139 150.7416  4.66711068  6683
Epoch: 2026-02-02T04:50Z
TLE epoch observation values (Epoch: 2026-02-02T04:50:43.166Z)
Latitude
-0°
Longitude
6.82768°
Altitude
16,928.597 km
Speed
2.803 km/s
True Right ascension
14h 07m 37s
True Declination
0° 00' 00"
Sunlit
Object was in daylight at epoch
Visualization orbit readout
Latitude
Unknown
Longitude
Unknown
Altitude
Unknown
Speed
Unknown
Apparent Right ascension
Unknown
Apparent Declination
Unknown
Sunlit
N/A
Visualization observer readout
Local Sidereal Time
02:50:01
Azimuth
Unknown
Elevation
Unknown
Doppler factor
Unknown
Orbital elements
Apogee altitude
17,386.058 km
Perigee altitude
106.72 km
Semi-major axis
15,124.526 km
Eccentricity
0.57124
Inclination
60.7965°
RAAN
211.9111°
Arg. of periapsis
189.9139°
True anomaly
170.14556°
Mean anomaly
150.7416°
Eccentric anomaly
161.25786°
Mean motion
1.16686 °/min
Orbital period
308.52 mins
BSTAR
0.0010981
Loading maneuver chart data...
Computing Atmospheric mass density...
Loading historical data...
Loading historical data...
Loading historical data...
Loading historical data...
Loading historical data...
Loading historical data...
Loading historical data...
Other satellites on launch #131 in the year 2025 (2025-06-19 UTC)

Documentation

Showing up to 5 results
|